Location: Brodeslavy
(49.9527°N, 13.5567°E)
Time: 17:11:17
(UTC+00:00)

Ariane Rocket - Pass Details

Date: 17 June 2025
Orbit: 754 x 765 km, 98.5° (Epoch: 12 July)

Event Time Altitude Azimuth Distance (km) Brightness Sun altitude
Exits shadow 20:53:48 10° 180° (S) 2,313 5.0 -10.9°
Reaches altitude 10° 20:53:50 10° 180° (S) 2,298 5.0 -10.9°
Maximum altitude 20:58:49 56° 259° (W) 907 3.5 -11.3°
Drops below altitude 10° 21:03:50 10° 338° (NNW) 2,313 7.0 -11.7°
Sets 21:06:11 0° 343° (NNW) 3,243 8.1 -11.9°
